User: anonymous   Login
Location: Caltech
(34.1382°N, 118.1253°W)
Time: 22:33:23
(UTC-08:00)
Language:

RESURS DK-1 - Orbit

View from above orbital plane
View from above orbital plane
View from above satellite
View from above satellite

Ground track
Ground track

The orbit data is extracted from the following two-line orbital elements,

1 29228U 06021A   16041.90870586  .00000794  00000-0  68235-4 0  9995
2 29228  69.9369 270.2330 0004254 332.5490 121.4287 15.01767937534187
Epoch (UTC): 10 February 2016 21:48:32
Eccentricity: 0.0004254
inclination: 69.9369°
perigee height: 558 km
apogee height: 564 km
right ascension of ascending node: 270.2330°
argument of perigee: 332.5490°
revolutions per day: 15.01767937
mean anomaly at epoch: 121.4287°
orbit number at epoch: 53418

The dashed part of the orbit path shows where the satellite is in the earth's shadow,  

DLR